Regional Weather Roundup
Issued by NWS

Home | Current Version | Previous Version | Graphics & Text | Print | Product List | Glossary On
Versions: 1 2 3 4 5 6 7 8 9 10 11 12 13 14 15 16 17 18 19 20 21 22 23 24 25 26 27 28 29 30 31 32 33 34 35 36 37 38 39 40 41 42 43 44 45 46 47 48 49 50
000
ASUS43 KLMK 181102
RWRKY
KENTUCKY REGIONAL WEATHER ROUNDUP
NATIONAL WEATHER SERVICE LOUISVILLE KY
700 AM EDT SAT APR 18 2015

NOTE "FAIR" INDICATES FEW OR NO CLOUDS BELOW 12,000 FEET
WITH NO SIGNIFICANT WEATHER AND/OR OBSTRUCTIONS TO VISIBILITY.

KYZ001>023-026-027-061>063-070>075-181200-
WESTERN AND SOUTH CENTRAL KENTUCKY

CITY           SKY/WX    TMP DP  RH WIND       PRES   REMARKS
PADUCAH        CLOUDY    57  55  93 CALM      30.00F FOG
HENDERSON        N/A     52  50  93 CALM      30.02R VSB 1/2
OWENSBORO      FOG       55  55 100 CALM      30.03R VSB 1/4
HOPKINSVILLE   CLOUDY    55  55 100 CALM      30.02S FOG
BOWLING GREEN  FOG       53  51  93 CALM      30.03R VSB 1/2
GLASGOW        NOT AVBL
$$

KYZ024-025-028>034-038-045-046-053-181200-
NORTH CENTRAL KENTUCKY

CITY           SKY/WX    TMP DP  RH WIND       PRES   REMARKS
LOUISVILLE/SDF PTCLDY    57  54  89 N5        30.03R
LOUISVILLE/LOU CLEAR     54  52  93 NW3       30.04R
FORT KNOX      CLEAR     56  55  96 N8        30.01S FOG
$$

KYZ035>037-039>044-047>052-055>060-089>105-181200-
NORTHEAST KENTUCKY

CITY           SKY/WX    TMP DP  RH WIND       PRES   REMARKS
LEXINGTON      CLEAR     54  50  86 E3        30.04S
COVINGTON      PTCLDY    51  43  74 CALM      30.04S
FRANKFORT      PTCLDY    49  47  93 CALM      30.03R FOG
$$

KYZ054-064>069-076>088-106>120-181200-
SOUTHEAST KENTUCKY

CITY           SKY/WX    TMP DP  RH WIND       PRES   REMARKS
JACKSON        CLEAR     58  49  72 CALM      30.04S
LONDON         CLEAR     55  50  83 CALM      30.03R
SOMERSET       NOT AVBL
MIDDLESBORO    NOT AVBL
MONTICELLO     FOG       51  51 100 CALM      30.07R VSB<1/4
$$




USA.gov is the U.S. government's official web portal to all federal, state and local government web resources and services.